TimeMST,TemperatureF,Dew PointF,Humidity,Sea Level PressureIn,VisibilityMPH,Wind Direction,Wind SpeedMPH,Gust SpeedMPH,PrecipitationIn,Events,Conditions,WindDirDegrees,DateUTC
12:53 AM,23.0,16.0,74,30.39,10.0,Calm,Calm,-,N/A,,Clear,0,2013-01-17 07:53:00
1:53 AM,26.1,17.1,69,30.39,10.0,SW,6.9,-,N/A,,Clear,230,2013-01-17 08:53:00
2:53 AM,24.1,16.0,71,30.41,10.0,WSW,5.8,-,N/A,,Clear,240,2013-01-17 09:53:00
3:53 AM,21.9,16.0,78,30.42,10.0,SW,5.8,-,N/A,,Clear,230,2013-01-17 10:53:00
4:53 AM,26.1,16.0,66,30.41,10.0,WSW,3.5,-,N/A,,Clear,240,2013-01-17 11:53:00
5:53 AM,21.0,15.1,78,30.43,10.0,South,3.5,-,N/A,,Clear,170,2013-01-17 12:53:00
6:53 AM,23.0,15.1,72,30.42,10.0,South,8.1,-,N/A,,Clear,180,2013-01-17 13:53:00
7:53 AM,24.1,15.1,69,30.42,10.0,SSW,3.5,-,N/A,,Clear,200,2013-01-17 14:53:00
8:53 AM,27.0,18.0,69,30.43,10.0,South,3.5,-,N/A,,Clear,190,2013-01-17 15:53:00
9:53 AM,35.1,24.1,64,30.39,10.0,South,3.5,-,N/A,,Clear,190,2013-01-17 16:53:00
10:53 AM,44.1,24.1,45,30.33,10.0,Calm,Calm,-,N/A,,Clear,0,2013-01-17 17:53:00
11:53 AM,43.0,26.1,51,30.30,10.0,NNW,4.6,-,N/A,,Clear,330,2013-01-17 18:53:00
12:53 PM,48.0,27.0,44,30.25,10.0,Calm,Calm,-,N/A,,Clear,0,2013-01-17 19:53:00
1:53 PM,50.0,28.0,43,30.22,10.0,Calm,Calm,-,N/A,,Clear,0,2013-01-17 20:53:00
2:53 PM,51.1,23.0,33,30.19,10.0,Calm,Calm,-,N/A,,Clear,0,2013-01-17 21:53:00
3:53 PM,48.9,23.0,36,30.19,10.0,SE,4.6,-,N/A,,Clear,140,2013-01-17 22:53:00
4:53 PM,39.0,25.0,57,30.20,10.0,Calm,Calm,-,N/A,,Clear,0,2013-01-17 23:53:00
5:53 PM,33.1,25.0,72,30.24,10.0,NW,6.9,-,N/A,,Clear,320,2013-01-18 00:53:00
6:53 PM,28.9,23.0,78,30.24,10.0,Variable,3.5,-,N/A,,Clear,0,2013-01-18 01:53:00
7:53 PM,26.1,21.0,81,30.24,10.0,Calm,Calm,-,N/A,,Clear,0,2013-01-18 02:53:00
8:53 PM,28.9,21.0,72,30.21,10.0,South,6.9,-,N/A,,Clear,180,2013-01-18 03:53:00
9:53 PM,32.0,19.0,59,30.14,10.0,Calm,Calm,-,N/A,,Clear,0,2013-01-18 04:53:00
10:53 PM,39.9,17.1,40,30.06,10.0,WSW,11.5,-,N/A,,Clear,250,2013-01-18 05:53:00
11:53 PM,35.1,19.0,52,30.06,10.0,West,9.2,-,N/A,,Clear,260,2013-01-18 06:53:00